Regional Weather Roundup
Issued by NWS

Home | Current Version | Previous Version | Graphics & Text | Print | Product List | Glossary Off
Versions: 1 2 3 4 5 6 7 8 9 10 11 12 13 14 15 16 17 18 19 20 21 22 23 24 25 26 27 28 29 30 31 32 33 34 35 36 37 38 39 40 41 42 43 44 45 46 47 48 49 50

000
ASUS43 KTOP 162359
RWRKS

WEATHER ROUNDUP FOR KANSAS
NATIONAL WEATHER SERVICE GOODLAND KS
600 PM CST FRI FEB 16 2018

NOTE:  "FAIR" INDICATES FEW OR NO CLOUDS BELOW 12,000 FEET WITH NO
SIGNIFICANT WEATHER AND/OR OBSTRUCTIONS TO VISIBILITY.

KSZ001>006-013>018-027>032-041>047-170100-
NORTHWEST KANSAS

CITY           SKY/WX    TMP DP  RH WIND       PRES   REMARKS
GOODLAND       CLOUDY    35  16  45 S17G26    29.98F WCI  25
6HR MIN TEMP:  33; 6HR MAX TEMP:  41;

HAYS           PTCLDY    35  13  40 S9        30.16F
HILL CITY      CLOUDY    37  16  42 S10       30.12  WCI  30
6HR MIN TEMP:  28; 6HR MAX TEMP:  40;

RUSSELL        CLOUDY    36  13  38 S9        30.17F
6HR MIN TEMP:  31; 6HR MAX TEMP:  40;

$$

KSZ061>065-074>080-084>089-170100-
SOUTHWEST KANSAS

CITY           SKY/WX    TMP DP  RH WIND       PRES   REMARKS
DODGE CITY     CLOUDY    35  14  42 S16       30.16F WCI  25
6HR MIN TEMP:  28; 6HR MAX TEMP:  40;

GARDEN CITY    CLOUDY    36  15  42 S17       30.11F WCI  26
6HR MIN TEMP:  30; 6HR MAX TEMP:  40;

GREAT BEND     CLOUDY    36  12  37 S12       30.20F WCI  28
LIBERAL        CLOUDY    36  16  44 S15       30.14F WCI  27
$$

KSZ066>073-081>083-090>101-170100-
SOUTHEAST KANSAS

CITY           SKY/WX    TMP DP  RH WIND       PRES   REMARKS
CHANUTE        CLOUDY    39  16  39 E5        30.29F
6HR MIN TEMP:  37; 6HR MAX TEMP:  43;

COFFEYVILLE    CLOUDY    41  21  44 E5        30.30F
6HR MIN TEMP:  39; 6HR MAX TEMP:  45;

HUTCHINSON     CLOUDY    36  12  37 SE7       30.24F
6HR MIN TEMP:  31; 6HR MAX TEMP:  40;

MEDICINE LODGE   N/A     38  14  37 SE5       30.22F
NEWTON         CLOUDY    36  10  34 S7        30.25F
PARSONS        MOCLDY    40  18  41 CALM      30.30F
6HR MIN TEMP:  36; 6HR MAX TEMP:  45;

WICHITA INTL   CLOUDY    38  12  34 S7        30.25F
6HR MIN TEMP:  32; 6HR MAX TEMP:  41;

WICHITA JABRA  CLOUDY    37  11  34 S5        30.25F
6HR MIN TEMP:  31; 6HR MAX TEMP:  41;

WICHITA MCCONL CLOUDY    38   9  30 SE3       30.24F
WINFIELD       CLOUDY    40  13  33 SE6       30.27F
6HR MIN TEMP:  36; 6HR MAX TEMP:  43;

$$

KSZ007>012-019>026-033>040-048>060-102>105-170100-
NORTHEAST KANSAS

CITY           SKY/WX    TMP DP  RH WIND       PRES   REMARKS
CONCORDIA      CLOUDY    30   7  37 S7        30.20F
6HR MIN TEMP:  26; 6HR MAX TEMP:  36;

EMPORIA        CLOUDY    35  10  35 SE6       30.26F
6HR MIN TEMP:  30; 6HR MAX TEMP:  40;

LAWRENCE       CLOUDY    31  10  41 SE5       30.30F
6HR MIN TEMP:  30; 6HR MAX TEMP:  38;

MANHATTAN      MOCLDY    37   8  30 CALM      30.26F
6HR MIN TEMP:  29; 6HR MAX TEMP:  39;

OLATHE IND     CLOUDY    33   9  36 CALM      30.30F
6HR MIN TEMP:  30; 6HR MAX TEMP:  37; 6HR PCP: TRACE;

OLATHE EXE     MOCLDY    35   6  29 CALM      30.29F
6HR MIN TEMP:  29; 6HR MAX TEMP:  38;

SALINA         CLOUDY    37  11  34 SE7       30.24F
6HR MIN TEMP:  30; 6HR MAX TEMP:  38;

TOPEKA BILLARD CLOUDY    34   8  33 E5        30.28F
6HR MIN TEMP:  30; 6HR MAX TEMP:  38;

TOPEKA FORBES  CLOUDY    35   7  31 S3        30.28F
6HR MIN TEMP:  29; 6HR MAX TEMP:  38;

$$




USA.gov is the U.S. government's official web portal to all federal, state and local government web resources and services.